Lapse_Rate
5.8 5.8 5.8 5.7 5.8 4.5 3.4 3.1 3.4 3.8 4.5 5.5 5.8 5.7 5.7 5.9 5.7 5.3 4.3 5.7 5.7 5.8 5.7 6.1 6.0 6.0 6.0 6.0 5.8 5.5 5.8 5.7 5.8 5.9 5.6 5.5 5.4 5.6 5.9 5.8 5.7 5.7 5.7 5.7 5.9 6.3 6.6 6.6 6.5
5.8 5.8 5.9 5.9 5.8 4.3 2.8 3.3 3.1 3.8 5.4 5.8 5.7 5.5 5.8 5.6 5.4 5.7 6.0 5.9 5.9 6.1 5.9 5.8 6.0 5.9 5.9 5.8 5.9 5.6 5.7 5.9 5.8 5.7 5.8 5.6 5.3 5.5 5.9 5.9 5.8 5.9 5.8 5.8 6.0 6.4 6.7 6.6 6.4
5.9 5.9 5.9 5.6 5.5 3.7 3.3 3.4 3.6 4.7 5.2 5.6 5.5 5.0 5.6 5.6 5.5 5.5 5.9 5.6 6.3 5.8 5.9 5.9 5.7 6.0 6.1 5.8 5.9 5.8 5.7 5.8 6.0 5.8 5.8 5.5 5.2 5.6 5.9 6.1 5.9 6.0 5.9 5.9 6.1 6.5 6.8 6.5 6.3
5.7 5.6 5.7 5.6 4.5 4.1 3.7 3.8 4.1 5.0 5.0 5.2 5.7 5.0 4.8 5.4 5.7 5.6 6.1 5.8 6.0 5.8 5.6 5.6 5.7 5.8 6.0 5.9 5.6 5.9 5.8 5.8 6.0 6.0 5.8 5.4 5.3 5.6 5.8 6.0 6.1 6.1 6.0 6.2 6.2 6.5 6.8 6.4 6.4
5.7 5.8 5.3 4.7 3.8 4.0 4.0 4.1 4.4 4.7 5.3 5.6 5.9 4.7 4.7 5.8 5.8 5.8 5.9 6.1 5.6 5.8 5.9 5.7 5.7 5.7 5.8 5.8 5.8 5.9 5.9 5.7 5.7 6.1 5.9 5.5 5.4 5.7 5.8 5.9 6.1 6.1 6.1 6.3 6.2 6.4 6.6 6.4 6.4
5.8 5.8 5.3 4.1 4.1 4.8 4.2 4.2 4.5 4.9 5.3 5.7 5.2 5.1 4.7 5.5 5.9 6.0 6.2 6.1 6.0 5.7 5.9 5.8 5.7 5.6 5.7 5.7 5.8 6.0 5.9 5.8 5.7 5.9 6.1 5.6 5.5 5.7 5.8 5.9 6.1 6.0 6.2 6.3 6.2 6.3 6.5 6.4 6.4
5.8 5.9 4.9 4.7 4.5 4.4 4.3 4.2 4.7 4.9 5.5 5.5 5.8 5.3 5.3 5.7 6.1 6.1 5.8 6.0 5.7 5.6 5.8 6.0 5.6 5.5 5.4 5.7 5.8 6.0 5.9 6.0 5.4 6.0 6.1 5.8 5.7 5.8 6.0 5.9 6.1 6.0 6.2 6.3 6.3 6.2 6.2 6.3 6.2
5.8 6.2 5.7 5.1 4.6 4.6 5.0 4.6 5.4 5.7 5.8 6.6 5.5 4.5 5.0 6.0 6.2 6.3 6.1 5.6 5.6 5.3 5.3 5.3 5.4 5.4 5.2 5.4 5.7 5.9 6.1 5.7 5.5 5.7 6.0 5.8 5.7 5.7 6.1 6.0 6.1 6.0 6.1 6.2 6.2 6.2 6.0 6.2 6.1
5.7 6.4 6.1 5.1 4.8 4.2 4.8 4.8 5.7 6.0 5.9 6.2 5.5 5.1 5.1 6.1 6.0 6.5 6.2 5.7 5.7 5.4 5.4 5.0 5.5 5.4 5.4 5.3 5.7 5.7 5.8 5.5 5.6 5.6 5.8 5.9 6.0 5.8 6.1 6.1 6.1 6.0 6.0 6.1 6.2 6.1 5.9 6.2 6.0
5.9 6.3 6.0 6.3 6.1 5.2 5.1 5.0 5.7 5.7 5.8 5.8 5.6 5.1 5.2 6.2 6.0 6.3 6.3 5.7 5.4 5.3 5.5 5.3 5.4 5.3 5.4 5.5 5.7 5.9 6.0 5.5 5.7 5.7 5.8 6.1 5.7 5.7 6.1 6.0 6.1 6.0 6.0 6.0 6.2 5.9 6.1 6.1 6.0
5.9 6.1 6.5 5.5 5.5 5.4 5.6 5.4 5.6 5.6 5.6 6.1 6.3 6.4 6.5 6.3 6.0 5.9 5.8 5.2 5.7 5.5 5.1 5.0 5.2 5.3 5.6 5.6 5.7 5.8 5.8 5.9 5.9 5.5 5.7 5.9 5.9 5.8 6.1 6.1 6.1 6.0 6.0 5.9 6.1 5.9 6.1 6.0 5.9
5.8 6.0 5.6 6.0 6.1 6.2 5.6 5.8 6.0 5.7 5.9 6.7 6.7 6.9 6.5 6.1 5.7 6.2 5.8 5.9 5.9 5.5 4.8 5.9 5.4 5.6 5.7 5.7 5.9 5.9 6.2 6.0 5.7 5.7 5.9 5.9 5.7 5.7 5.9 5.9 5.9 5.9 6.0 6.0 6.0 5.9 5.9 5.9 5.8
5.6 5.7 5.6 6.0 6.3 5.8 5.8 5.9 6.0 6.0 6.2 6.7 6.6 6.5 5.9 5.9 5.6 5.9 6.1 6.2 5.6 5.6 5.3 4.8 5.3 5.8 5.9 6.1 5.9 5.8 6.1 6.0 6.0 5.8 6.0 5.8 5.8 5.8 5.9 5.9 5.9 6.0 5.9 5.9 5.9 5.9 5.8 5.9 5.8
5.5 5.5 5.6 5.8 5.8 6.0 5.8 5.4 5.8 5.6 5.8 6.3 6.6 6.2 6.3 6.0 5.9 5.9 5.8 6.0 6.1 5.7 5.5 5.1 4.9 5.2 5.7 5.9 6.0 5.8 6.0 6.2 5.9 6.0 5.8 5.9 5.8 5.7 5.9 5.9 5.9 5.9 6.0 5.8 6.0 5.9 5.8 5.9 5.8
5.0 5.2 5.0 5.1 5.2 5.7 5.9 5.8 5.5 5.4 5.8 6.3 6.2 6.0 6.2 5.5 5.7 6.1 5.7 5.8 5.7 5.7 5.8 5.0 4.2 5.3 5.7 6.0 5.7 5.8 5.9 6.0 6.1 5.9 5.7 6.0 6.1 5.8 5.7 5.7 5.7 5.8 6.0 5.7 6.0 6.0 5.8 5.8 5.8
5.3 5.0 4.9 5.5 5.2 5.5 5.2 5.4 5.6 5.5 5.8 6.0 5.8 6.1 6.1 6.0 5.9 6.0 5.3 5.6 5.2 5.7 5.6 5.4 5.2 4.6 5.0 5.4 5.4 5.4 5.7 5.7 5.6 5.9 5.6 5.8 6.1 5.7 5.7 5.7 5.5 5.7 5.8 5.7 5.9 5.9 5.9 5.8 5.8
6.1 5.1 4.9 5.0 5.2 5.2 5.6 5.1 5.6 5.9 5.7 5.9 5.9 6.3 6.3 6.1 5.9 5.4 5.6 5.9 5.6 5.7 5.9 5.6 5.1 4.9 5.1 5.2 5.1 5.1 5.2 5.5 5.5 5.7 5.1 5.5 6.4 5.7 5.7 5.7 5.5 5.6 5.5 5.8 5.8 5.8 5.9 6.0 5.9
6.4 5.5 4.7 4.1 5.7 5.0 5.5 5.0 5.5 5.6 5.6 5.8 5.9 6.4 6.3 6.4 6.3 6.3 6.0 6.1 5.8 5.7 5.8 5.6 5.2 5.1 4.7 4.9 5.0 5.0 5.2 5.3 5.4 5.0 5.0 5.2 6.3 5.7 5.6 5.6 5.6 5.5 5.6 5.7 5.8 5.9 5.8 6.1 6.0
6.8 6.4 6.0 5.4 5.4 5.3 5.5 5.1 4.8 5.6 5.6 5.7 5.5 6.0 6.4 6.6 6.8 6.7 6.2 6.3 6.4 6.1 5.9 6.2 5.8 5.7 5.4 4.7 4.7 5.4 5.1 5.1 5.2 4.7 4.7 5.2 6.2 6.1 5.6 5.6 5.4 5.7 5.7 5.6 5.7 5.7 5.8 6.1 6.0
6.9 6.4 5.8 5.5 5.6 6.0 5.8 5.5 5.6 5.4 5.7 5.7 5.6 5.6 6.0 6.5 6.9 6.5 6.1 6.1 6.3 6.4 5.9 5.9 5.2 5.5 4.9 4.8 4.7 4.9 4.5 5.0 5.0 4.9 4.8 5.3 6.3 5.8 5.4 5.5 5.4 5.7 5.8 5.8 6.0 5.8 5.7 5.9 5.9
7.5 6.4 6.2 5.4 6.5 6.3 5.8 5.7 5.4 6.1 5.7 5.2 5.5 5.7 6.3 6.6 6.7 6.6 6.5 6.2 6.3 6.5 6.5 6.4 5.9 5.5 5.3 5.1 5.1 4.7 4.7 4.6 4.6 5.1 4.9 6.0 6.2 6.2 5.8 5.5 5.4 5.6 5.7 5.8 5.7 5.7 5.5 5.8 5.8
7.5 7.4 6.9 6.4 6.5 6.1 6.6 6.7 5.9 5.8 5.3 5.0 5.6 5.8 6.1 6.4 6.6 6.8 6.6 6.6 6.4 6.6 6.5 6.3 5.8 5.4 5.3 5.0 5.2 5.3 5.0 5.0 4.8 5.2 5.0 5.5 6.4 6.0 5.8 5.7 5.7 5.4 5.6 5.8 5.8 5.6 5.5 5.6 5.7
7.8 7.6 7.2 6.7 6.9 6.2 6.9 6.5 6.2 6.6 5.9 5.7 5.4 5.5 5.9 6.2 6.2 6.7 6.7 6.6 6.9 6.8 6.8 6.4 6.0 5.7 5.3 5.4 5.2 4.8 4.7 4.9 4.8 5.1 5.1 6.3 6.7 6.0 5.6 5.7 5.7 5.4 5.6 5.6 5.8 5.7 5.7 5.6 5.6
7.5 7.7 6.9 7.1 7.2 6.9 6.8 6.6 6.6 6.2 5.8 6.3 5.5 6.1 5.8 6.1 6.3 6.2 6.9 6.9 6.8 6.8 6.5 6.2 6.0 5.7 5.4 5.5 4.9 4.9 4.8 4.9 5.0 5.1 4.9 5.9 5.8 5.9 5.8 5.9 5.5 5.7 5.6 5.8 5.8 5.6 5.6 5.6 5.7
7.4 7.5 7.3 7.6 7.6 6.9 7.5 6.6 5.2 5.2 6.3 5.9 5.8 5.9 5.9 5.9 6.2 6.3 6.0 5.8 6.3 6.5 6.7 6.5 6.0 5.6 5.5 5.0 4.8 4.7 4.6 4.8 4.7 4.8 4.8 5.6 6.3 6.4 6.4 6.0 5.9 6.1 6.2 6.1 5.7 5.6 5.6 5.7 5.7
7.0 7.5 7.6 7.1 7.3 7.0 7.7 7.2 4.7 5.1 5.7 5.8 5.4 5.6 5.5 5.5 5.9 6.1 5.8 5.8 5.7 6.4 6.7 6.5 6.0 5.3 5.2 5.0 4.7 4.7 4.7 4.8 4.7 4.8 4.6 5.0 6.0 6.7 6.4 5.9 5.9 6.1 6.4 6.3 5.8 5.6 5.6 5.6 5.5
7.1 7.1 7.3 7.4 7.6 7.8 7.4 5.2 5.2 4.8 5.6 5.5 5.3 6.0 5.9 5.6 5.7 6.2 6.1 6.0 5.9 6.1 5.9 5.6 5.6 5.6 5.1 4.9 4.9 4.6 4.4 4.5 4.9 5.1 4.8 5.2 5.8 6.6 6.4 5.8 6.0 6.1 6.1 6.0 5.8 5.7 5.6 5.5 5.4
6.9 7.0 7.3 7.0 7.0 7.1 6.5 5.7 3.3 4.9 5.4 5.4 5.6 5.6 5.9 6.1 5.6 6.3 6.4 6.4 6.4 6.2 6.2 5.9 5.7 5.2 4.9 4.9 5.0 4.9 4.8 5.1 5.0 5.4 5.1 6.0 6.7 6.8 6.8 6.4 6.4 6.3 5.9 5.8 5.6 5.6 5.5 5.4 5.4
7.0 7.1 6.3 6.5 6.8 6.8 5.9 3.6 2.7 3.8 4.4 4.9 4.8 5.2 5.7 5.6 5.8 5.9 6.3 6.4 6.4 6.4 6.3 6.0 5.7 5.5 5.3 5.2 5.3 5.2 5.2 5.3 5.3 5.6 5.6 5.8 6.3 6.6 6.9 6.6 6.7 6.3 6.2 6.3 6.0 5.8 5.5 5.4 5.4
5.3 5.2 4.2 4.9 6.1 5.1 4.0 1.8 1.8 3.0 3.7 4.6 4.8 5.4 5.3 5.7 6.0 5.9 6.3 6.5 6.4 6.5 6.2 5.8 5.6 5.5 5.4 5.6 5.5 5.4 5.2 5.0 5.1 5.3 5.4 5.7 6.2 6.2 6.3 6.9 7.0 7.0 6.7 6.4 6.7 6.3 5.9 5.6 5.4
Wind_Speed
22 11 4 2 4 7 21 8 6 7 4 6 4 5 8 9 6 5 6 10 6 11 20 23 28 29 28 29 29 28 28 28 27 28 26 25 24 25 24 22 21 19 19 17 18 20 20 20 18
13 4 2 2 10 13 22 15 14 9 7 7 7 3 3 10 3 2 5 10 10 10 18 20 27 28 28 29 31 29 28 29 27 26 27 25 23 24 24 24 21 20 19 17 18 20 22 22 22
8 4 4 4 6 28 16 13 13 7 6 7 6 1 5 4 4 7 5 12 11 13 15 19 27 27 28 29 30 30 29 30 28 26 26 25 23 23 24 24 22 21 19 19 18 21 22 24 22
9 4 3 9 30 31 19 9 16 11 6 7 5 4 1 6 5 8 5 6 14 14 19 18 28 27 27 29 30 30 29 31 28 28 26 24 23 23 23 24 23 22 20 21 20 21 23 23 22
5 3 11 20 38 30 15 12 11 15 14 9 7 6 4 3 5 6 7 9 14 14 14 19 29 29 28 30 30 30 30 31 29 28 27 24 23 23 22 23 24 23 22 23 21 22 23 23 22
9 10 10 28 36 31 19 8 10 9 12 5 7 6 6 2 8 7 8 9 6 14 13 21 29 29 31 31 31 32 30 31 29 28 27 26 24 24 23 23 24 22 22 24 23 21 23 23 22
19 16 29 28 30 24 24 11 16 16 11 16 6 13 4 2 12 8 8 9 6 9 12 16 25 29 32 33 32 31 31 30 27 28 27 27 24 25 25 23 24 22 23 25 24 22 23 23 22
11 10 29 30 23 30 23 19 19 19 20 6 8 8 7 6 10 7 4 7 10 5 10 15 20 24 25 26 31 30 31 29 28 27 27 26 25 24 26 24 24 23 23 25 25 23 24 23 23
12 16 22 34 35 21 9 17 18 20 12 9 8 7 5 7 10 8 6 6 5 6 8 14 14 18 23 24 27 29 30 28 27 26 28 25 19 20 22 20 25 24 23 24 26 24 23 24 23
15 15 28 36 30 18 18 15 15 9 11 9 4 1 3 8 12 14 12 10 6 11 10 15 15 16 21 22 25 25 25 22 20 21 19 19 18 18 19 22 24 24 24 24 25 22 23 20 21
14 27 33 28 17 23 17 27 13 16 17 17 20 13 12 8 14 15 13 12 15 10 9 18 20 17 18 15 18 18 19 16 15 20 20 20 18 15 17 18 18 20 20 17 21 20 21 20 19
18 23 27 22 30 16 29 20 22 20 17 15 25 23 16 14 16 17 16 14 12 10 12 19 23 19 19 17 12 17 12 16 15 18 21 18 15 12 12 12 16 18 20 18 20 19 19 19 20
16 19 19 27 19 23 12 14 25 22 18 12 16 17 17 15 16 18 19 16 12 11 9 21 17 18 18 18 11 12 11 15 17 20 20 19 15 10 13 12 14 17 19 18 16 17 16 17 17
12 21 23 17 19 19 19 20 8 17 17 12 16 19 19 19 18 14 15 16 15 15 16 14 19 20 19 16 16 12 16 17 19 18 19 20 17 14 12 10 10 14 18 18 19 15 12 12 16
15 20 19 22 15 19 15 13 16 18 15 15 17 17 17 18 16 15 17 15 15 15 17 14 10 17 20 18 16 12 15 18 14 16 20 20 18 16 14 10 9 13 19 18 18 16 14 12 11
10 11 16 19 18 12 12 17 19 26 19 17 17 16 16 18 16 14 8 13 13 15 17 16 11 12 17 17 14 11 15 16 16 17 19 21 19 18 15 10 8 16 16 16 11 8 4 5 5
8 12 16 17 15 8 16 8 18 5 13 20 20 15 15 14 12 12 8 10 14 14 15 16 17 14 10 15 11 11 14 11 16 17 18 20 20 19 15 11 11 16 13 11 9 3 4 5 4
12 11 12 17 18 17 15 20 13 11 9 12 17 14 14 16 17 12 10 10 12 12 14 15 15 14 15 9 9 7 7 8 13 14 16 21 19 20 15 12 14 14 9 6 5 4 2 4 5
14 17 20 12 15 18 19 18 18 14 10 9 14 14 14 14 13 11 9 11 11 12 12 13 15 19 12 10 10 7 8 8 8 9 18 19 19 21 18 12 12 12 8 8 7 4 5 3 3
14 20 18 11 12 14 17 23 15 19 12 9 10 14 15 14 13 11 10 11 14 14 14 12 14 16 16 13 11 7 8 5 7 8 14 19 19 20 18 15 9 12 6 7 6 5 4 2 4
21 22 20 10 8 18 7 17 12 15 16 13 6 8 11 15 16 15 14 15 15 14 15 15 15 17 16 15 11 8 6 5 3 5 7 10 19 20 19 17 14 10 9 9 9 7 6 4 3
17 22 18 14 11 14 15 4 16 17 16 19 19 10 11 16 15 14 16 17 17 15 13 13 13 14 13 17 14 17 11 10 7 10 9 8 16 17 17 18 16 14 10 8 8 6 3 5 5
10 15 17 12 15 3 15 9 2 17 19 17 20 23 18 9 13 17 18 17 18 16 15 13 13 15 14 15 15 13 13 9 7 7 10 9 9 16 18 18 17 12 10 8 8 7 6 3 4
9 8 9 4 6 7 9 16 4 3 15 20 21 23 18 10 12 14 16 14 13 14 15 15 16 15 16 15 15 16 16 12 10 9 9 9 9 9 14 15 15 15 12 8 8 7 7 6 4
17 11 5 7 7 6 15 11 3 12 17 7 8 5 12 13 14 2 4 8 12 16 18 16 17 16 16 17 15 15 15 16 17 16 12 12 9 7 12 13 13 10 15 14 13 8 7 7 5
5 6 3 5 7 10 12 10 4 10 14 17 18 16 15 17 15 15 14 10 5 14 19 19 19 18 18 16 17 17 17 12 11 13 10 10 11 11 13 12 14 16 17 14 14 5 5 5 5
7 6 3 3 1 7 9 6 11 13 18 19 18 17 17 16 15 16 15 13 11 10 3 16 16 15 15 16 15 15 15 14 12 13 12 10 10 8 12 12 12 11 14 14 12 8 8 6 5
5 3 2 3 5 6 7 8 4 13 15 16 17 17 14 16 15 14 14 14 12 11 10 9 15 13 18 18 15 14 16 15 12 11 13 13 11 11 12 12 13 12 11 12 12 7 6 8 4
8 5 5 5 2 2 5 4 6 10 12 13 13 13 13 14 14 14 13 12 12 12 12 10 10 4 12 15 18 16 12 13 12 11 11 11 12 13 13 14 13 13 13 12 11 10 10 10 8
18 8 5 3 5 3 4 4 9 9 11 11 10 11 13 14 13 13 13 14 14 14 13 12 12 11 8 13 13 13 10 12 11 10 11 11 12 12 14 13 12 13 13 12 14 12 11 12 11
Wind_Direction
237 234 93 104 199 230 235 217 167 170 190 205 195 175 189 191 179 205 156 192 149 168 171 180 172 165 160 154 150 145 144 141 139 134 130 131 132 132 128 124 120 115 111 112 114 115 115 108 112
233 116 62 219 223 223 234 206 197 195 198 169 200 166 160 228 224 99 106 188 148 165 176 177 175 167 162 158 150 148 145 141 134 135 136 135 138 137 132 125 121 117 114 116 118 120 117 110 108
184 136 162 223 237 227 233 183 186 209 186 171 140 258 188 204 173 153 289 150 148 163 183 179 178 168 163 159 153 150 148 134 136 138 137 138 145 138 132 127 123 120 118 119 121 124 119 114 111
197 177 250 227 231 239 232 170 188 201 227 218 169 192 236 223 181 164 174 173 154 172 174 182 178 172 167 159 154 151 146 137 138 140 139 145 144 137 132 128 125 123 123 121 124 124 120 116 117
181 182 220 234 240 238 220 196 174 197 209 208 172 220 243 246 176 155 149 171 168 168 179 177 177 170 166 160 157 151 145 138 143 145 143 148 143 137 135 132 127 125 127 123 127 126 121 117 116
209 206 209 227 232 231 231 187 179 194 202 207 196 205 226 258 158 196 152 155 197 165 180 179 176 171 165 162 157 151 145 141 146 148 147 147 144 140 138 135 129 129 129 126 128 127 122 120 117
224 204 222 230 236 238 215 160 207 212 197 215 170 207 212 237 205 171 184 135 127 178 186 183 179 172 166 160 156 149 146 144 153 149 147 144 144 144 140 137 131 132 130 129 125 127 123 121 117
239 230 222 232 233 241 217 203 199 197 223 214 163 211 221 221 184 166 192 161 158 136 198 187 176 173 162 157 152 148 142 150 152 148 142 140 143 146 141 138 134 133 133 132 131 130 125 124 118
241 217 234 224 227 224 186 206 207 215 211 193 202 176 198 169 146 159 165 174 165 175 205 185 174 168 159 159 150 145 143 150 149 142 135 137 141 142 132 137 135 137 135 133 130 128 128 124 118
222 231 222 229 234 227 226 204 181 175 198 205 191 254 199 160 164 187 190 184 200 177 182 196 174 164 158 155 150 148 144 149 144 138 131 123 123 128 131 135 136 139 137 135 131 127 129 118 117
232 229 238 236 245 221 238 218 182 197 215 209 205 195 185 179 177 187 194 196 196 191 187 203 173 162 160 153 151 149 146 140 130 131 131 128 125 127 127 137 136 138 134 133 124 125 124 122 118
259 241 245 239 239 241 224 225 215 199 208 185 208 200 176 182 185 192 199 199 210 183 205 211 172 164 161 153 154 150 143 142 144 138 136 135 130 131 122 122 128 124 126 118 124 119 123 120 121
283 280 269 249 241 252 259 246 229 224 210 195 199 187 187 190 194 189 199 199 200 196 191 219 164 163 161 155 150 153 149 153 147 144 140 144 143 141 131 130 132 128 134 131 123 121 124 120 118
287 290 287 297 264 252 236 236 246 219 186 187 177 188 192 193 196 195 191 198 193 195 192 211 181 167 159 156 153 154 151 147 149 147 150 143 144 144 137 136 138 133 138 142 130 128 128 120 124
257 273 275 258 266 237 216 243 236 263 192 180 184 192 198 201 203 195 193 181 188 185 170 166 176 171 159 155 152 153 152 150 149 151 146 141 146 147 143 142 150 144 143 137 124 118 121 109 110
264 262 261 255 236 251 233 235 223 224 236 198 188 195 194 212 194 198 200 185 186 167 173 154 147 181 158 155 155 153 152 154 152 153 152 146 149 147 145 148 153 148 141 136 125 123 114 107 112
226 254 251 263 230 230 206 275 216 206 230 197 194 193 195 203 204 200 184 172 176 171 162 155 149 159 145 155 150 149 155 150 159 156 153 154 152 149 152 147 149 148 142 130 136 102 137 124 133
237 232 248 256 230 228 224 235 235 190 234 223 195 187 195 198 205 184 170 169 166 166 163 159 152 142 140 143 129 122 142 139 154 160 156 158 154 152 149 145 150 151 141 127 122 132 84 124 137
258 264 245 275 253 214 234 236 221 216 214 231 205 195 190 197 199 190 170 168 158 165 162 164 161 154 151 140 135 144 156 158 157 159 160 158 157 155 152 152 153 155 157 155 139 121 124 91 137
262 252 251 258 256 230 222 236 223 209 211 221 230 208 190 185 190 187 167 168 176 172 172 167 168 165 165 159 162 161 157 166 161 170 160 158 158 161 162 158 168 165 141 144 150 155 136 101 178
261 233 226 230 305 204 209 242 223 214 204 186 237 257 211 185 189 185 176 180 185 175 175 178 176 173 167 158 139 129 95 95 105 156 161 165 165 166 163 162 163 165 164 170 171 169 158 137 193
241 206 209 212 252 202 186 245 211 209 211 207 208 270 252 217 197 187 185 186 187 186 178 180 176 171 164 158 151 158 157 166 179 180 174 163 165 165 161 164 164 174 173 170 175 177 163 130 155
231 186 200 195 230 311 194 250 116 192 206 201 198 206 245 255 209 189 193 189 187 181 180 182 175 173 168 164 156 157 162 176 162 171 161 160 159 167 171 173 169 174 173 178 172 175 174 161 145
220 139 158 152 226 244 236 193 163 163 234 204 191 194 213 279 218 211 198 183 182 177 180 183 180 173 169 168 161 169 166 164 156 161 167 171 174 174 173 170 177 175 180 177 183 183 187 175 140
181 148 158 183 203 224 183 193 47 357 5 244 185 131 40 32 18 326 146 194 186 182 184 181 173 174 176 170 167 180 175 176 175 176 179 172 176 182 185 177 177 181 181 181 179 186 193 180 169
269 155 156 146 186 209 187 179 87 33 30 52 70 84 61 41 37 28 28 12 284 202 187 180 174 173 169 171 178 187 185 189 186 179 176 184 189 189 179 185 189 184 181 177 179 187 194 176 175
132 224 247 69 53 200 151 102 60 19 35 35 41 48 53 43 28 24 18 17 3 3 240 195 182 164 165 180 185 188 189 186 186 182 181 183 179 177 175 182 184 176 181 176 179 191 187 179 174
301 104 183 191 205 186 143 129 63 6 19 31 23 30 33 40 28 21 19 7 5 5 2 350 209 191 179 178 191 189 192 194 185 174 182 181 174 166 170 180 185 181 179 179 178 182 166 178 170
360 26 330 291 232 328 131 102 49 32 17 31 17 25 23 35 21 20 11 10 5 12 11 9 12 238 188 195 186 197 195 191 182 177 179 174 166 169 173 183 186 182 186 183 186 183 175 185 172
74 352 322 321 358 79 60 93 28 39 25 24 13 19 24 32 28 24 15 11 8 10 12 8 9 9 349 206 207 198 176 186 185 179 172 171 174 173 180 182 183 187 189 183 191 186 184 183 182